�������l�o���
Date,Time,MP-1(��Sv/h),MP-2(��Sv/h),MP-3(��Sv/h),MP-4(��Sv/h),MP-5(��Sv/h),MP-6(��Sv/h),MP-7(��Sv/h),MP-8(��Sv/h),����,����(m/s),���J
2021/02/28,00:00,0.654,0.963,0.603,1.208,0.851,0.375,0.666,0.624,���k��,3.3,��
2021/02/28,00:10,0.653,0.962,0.602,1.206,0.854,0.374,0.665,0.626,���k��,3.3,��
2021/02/28,00:20,0.655,0.961,0.602,1.209,0.851,0.376,0.665,0.625,���k��,2.9,��
2021/02/28,00:30,0.653,0.961,0.603,1.206,0.854,0.375,0.665,0.623,�k��,2.3,��
2021/02/28,00:40,0.654,0.960,0.603,1.207,0.853,0.375,0.664,0.623,���k��,2.3,��
2021/02/28,00:50,0.654,0.960,0.602,1.209,0.854,0.374,0.665,0.625,���k��,2.5,��
2021/02/28,01:00,0.654,0.962,0.604,1.207,0.853,0.374,0.665,0.624,���k��,2.2,��
2021/02/28,01:10,0.653,0.961,0.601,1.208,0.851,0.374,0.665,0.624,�k��,1.9,��
2021/02/28,01:20,0.654,0.959,0.603,1.208,0.851,0.375,0.665,0.624,�k��,1.7,��
2021/02/28,01:30,0.654,0.962,0.602,1.205,0.852,0.374,0.665,0.624,�k��,2.0,��
2021/02/28,01:40,0.654,0.958,0.601,1.205,0.851,0.374,0.664,0.625,���k��,1.7,��
2021/02/28,01:50,0.653,0.963,0.602,1.208,0.853,0.374,0.666,0.624,���k��,1.5,��
2021/02/28,02:00,0.654,0.961,0.601,1.205,0.851,0.373,0.665,0.626,�k��,1.5,��
2021/02/28,02:10,0.652,0.960,0.601,1.207,0.851,0.373,0.665,0.625,���k��,1.2,��
2021/02/28,02:20,0.653,0.962,0.604,1.205,0.850,0.375,0.666,0.624,��,1.1,��
2021/02/28,02:30,0.653,0.959,0.602,1.205,0.852,0.375,0.666,0.624,��,1.2,��
2021/02/28,02:40,0.655,0.960,0.603,1.210,0.850,0.375,0.664,0.625,���쐼,1.7,��
2021/02/28,02:50,0.655,0.961,0.603,1.204,0.850,0.375,0.666,0.624,��,1.1,��
2021/02/28,03:00,0.652,0.961,0.602,1.206,0.850,0.375,0.664,0.623,���k��,1.4,��
2021/02/28,03:10,0.654,0.961,0.601,1.207,0.853,0.374,0.666,0.626,���쐼,1.2,��
2021/02/28,03:20,0.652,0.962,0.602,1.206,0.849,0.373,0.666,0.626,��,1.4,��
2021/02/28,03:30,0.654,0.960,0.603,1.207,0.851,0.374,0.665,0.624,���쐼,1.5,��
2021/02/28,03:40,0.653,0.960,0.602,1.206,0.848,0.375,0.664,0.626,���쐼,1.5,��
2021/02/28,03:50,0.654,0.961,0.601,1.208,0.850,0.374,0.666,0.624,���쐼,1.5,��
2021/02/28,04:00,0.653,0.959,0.602,1.205,0.851,0.375,0.665,0.624,�쐼,1.2,��
2021/02/28,04:10,0.654,0.960,0.601,1.206,0.851,0.375,0.664,0.623,���쐼,1.1,��
2021/02/28,04:20,0.654,0.961,0.603,1.208,0.849,0.375,0.663,0.625,���쐼,1.5,��
2021/02/28,04:30,0.654,0.962,0.603,1.207,0.849,0.375,0.664,0.625,���쐼,1.7,��
2021/02/28,04:40,0.652,0.961,0.602,1.206,0.850,0.375,0.666,0.624,���쐼,1.9,��
2021/02/28,04:50,0.654,0.960,0.602,1.207,0.851,0.374,0.665,0.622,�쐼,1.7,��
2021/02/28,05:00,0.653,0.959,0.602,1.206,0.850,0.374,0.664,0.624,���쐼,0.9,��
2021/02/28,05:10,0.654,0.959,0.603,1.205,0.850,0.374,0.665,0.624,���쐼,0.9,��
2021/02/28,05:20,0.654,0.960,0.601,1.207,0.850,0.374,0.664,0.623,�쐼,1.2,��
2021/02/28,05:30,0.654,0.961,0.602,1.204,0.850,0.375,0.665,0.624,�쐼,1.2,��
2021/02/28,05:40,0.654,0.960,0.601,1.206,0.849,0.374,0.664,0.623,�쐼,1.5,��
2021/02/28,05:50,0.652,0.962,0.603,1.206,0.850,0.375,0.664,0.622,�쐼,1.9,��
2021/02/28,06:00,0.653,0.960,0.601,1.205,0.850,0.374,0.666,0.623,�쐼,1.7,��
2021/02/28,06:10,0.653,0.960,0.600,1.206,0.849,0.374,0.664,0.623,�쐼,2.0,��
2021/02/28,06:20,0.653,0.958,0.603,1.205,0.852,0.374,0.664,0.624,�쐼,2.0,��
2021/02/28,06:30,0.654,0.960,0.602,1.208,0.852,0.374,0.665,0.624,��쐼,3.1,��
2021/02/28,06:40,0.654,0.960,0.600,1.207,0.850,0.373,0.665,0.624,��쐼,3.9,��
2021/02/28,06:50,0.653,0.959,0.601,1.205,0.849,0.375,0.665,0.625,��쐼,4.2,��
2021/02/28,07:00,0.654,0.959,0.603,1.207,0.851,0.373,0.663,0.623,��,4.5,��
2021/02/28,07:10,0.654,0.960,0.602,1.205,0.851,0.375,0.664,0.623,��쐼,4.3,��
2021/02/28,07:20,0.655,0.961,0.602,1.207,0.850,0.373,0.664,0.624,��쐼,4.4,��
2021/02/28,07:30,0.654,0.959,0.599,1.205,0.852,0.374,0.667,0.625,��쐼,4.7,��
2021/02/28,07:40,0.654,0.961,0.602,1.204,0.851,0.374,0.664,0.624,��쐼,5.1,��
2021/02/28,07:50,0.654,0.960,0.602,1.204,0.850,0.377,0.667,0.623,��,5.5,��
2021/02/28,08:00,0.655,0.962,0.602,1.206,0.850,0.376,0.664,0.625,��,5.8,��
2021/02/28,08:10,0.656,0.962,0.603,1.207,0.852,0.375,0.667,0.625,��,5.3,��
2021/02/28,08:20,0.657,0.962,0.602,1.204,0.850,0.376,0.666,0.626,��,3.5,��
2021/02/28,08:30,0.655,0.962,0.602,1.207,0.853,0.376,0.668,0.624,��쓌,4.4,��
2021/02/28,08:40,0.655,0.962,0.604,1.209,0.850,0.376,0.668,0.626,��쓌,3.6,��
2021/02/28,08:50,0.656,0.963,0.603,1.207,0.851,0.375,0.667,0.626,��,5.2,��
2021/02/28,09:00,0.656,0.962,0.604,1.207,0.854,0.374,0.669,0.624,��,4.9,��
2021/02/28,09:10,0.656,0.962,0.603,1.207,0.851,0.376,0.667,0.626,��,5.2,��
2021/02/28,09:20,0.658,0.964,0.603,1.210,0.852,0.376,0.666,0.626,��쓌,4.9,��
2021/02/28,09:30,0.657,0.961,0.602,1.205,0.854,0.375,0.666,0.626,��쓌,5.8,��
2021/02/28,09:40,0.656,0.962,0.604,1.206,0.854,0.375,0.665,0.626,��쓌,5.3,��
2021/02/28,09:50,0.656,0.962,0.604,1.207,0.851,0.376,0.666,0.626,��쓌,5.5,��
2021/02/28,10:00,0.654,0.960,0.604,1.207,0.853,0.377,0.667,0.626,��쓌,5.2,��
2021/02/28,10:10,0.658,0.961,0.605,1.205,0.853,0.377,0.667,0.626,��쓌,6.2,��
2021/02/28,10:20,0.656,0.960,0.605,1.207,0.853,0.376,0.666,0.627,��쓌,5.9,��
2021/02/28,10:30,0.656,0.962,0.606,1.205,0.854,0.377,0.666,0.626,��쓌,7.1,��
2021/02/28,10:40,0.657,0.961,0.604,1.206,0.853,0.376,0.665,0.627,��쓌,6.7,��
2021/02/28,10:50,0.656,0.964,0.603,1.207,0.857,0.376,0.667,0.627,��쓌,7.2,��
2021/02/28,11:00,0.656,0.962,0.606,1.208,0.855,0.376,0.666,0.625,��쓌,7.2,��
2021/02/28,11:10,0.657,0.963,0.604,1.209,0.855,0.376,0.667,0.624,��쓌,6.1,��
2021/02/28,11:20,0.657,0.964,0.604,1.208,0.855,0.377,0.667,0.626,��쓌,7.8,��
2021/02/28,11:30,0.657,0.963,0.607,1.210,0.853,0.377,0.666,0.624,��쓌,7.9,��
2021/02/28,11:40,0.657,0.966,0.605,1.207,0.855,0.378,0.665,0.628,��쓌,7.5,��
2021/02/28,11:50,0.657,0.964,0.604,1.208,0.854,0.377,0.666,0.626,��쓌,8.1,��
2021/02/28,12:00,0.658,0.965,0.604,1.210,0.854,0.378,0.667,0.625,��쓌,9.4,��
2021/02/28,12:10,0.659,0.966,0.606,1.206,0.857,0.379,0.667,0.626,��쓌,10.7,��
2021/02/28,12:20,0.659,0.963,0.605,1.210,0.855,0.378,0.668,0.626,��쓌,9.9,��
2021/02/28,12:30,0.657,0.964,0.606,1.209,0.856,0.379,0.667,0.627,��쓌,9.2,��
2021/02/28,12:40,0.658,0.963,0.606,1.208,0.856,0.377,0.667,0.626,��쓌,10.8,��
2021/02/28,12:50,0.659,0.964,0.607,1.207,0.855,0.377,0.666,0.627,��쓌,11.0,��
2021/02/28,13:00,0.659,0.964,0.606,1.210,0.858,0.378,0.668,0.625,��쓌,10.7,��
2021/02/28,13:10,0.659,0.963,0.605,1.211,0.854,0.379,0.666,0.625,��쓌,10.2,��
2021/02/28,13:20,0.657,0.964,0.606,1.210,0.854,0.378,0.666,0.625,��쓌,11.0,��
2021/02/28,13:30,0.658,0.966,0.605,1.208,0.855,0.380,0.668,0.625,��쓌,9.4,��
2021/02/28,13:40,0.659,0.965,0.606,1.210,0.855,0.379,0.667,0.625,��쓌,11.9,��
2021/02/28,13:50,0.658,0.962,0.608,1.213,0.855,0.378,0.667,0.623,��쓌,11.1,��
2021/02/28,14:00,0.658,0.965,0.606,1.209,0.854,0.379,0.668,0.623,��쓌,11.3,��
2021/02/28,14:10,0.659,0.966,0.605,1.211,0.856,0.378,0.669,0.623,��,12.5,��
2021/02/28,14:20,0.657,0.967,0.605,1.209,0.855,0.379,0.669,0.624,��,12.4,��
2021/02/28,14:30,0.658,0.966,0.607,1.210,0.855,0.379,0.670,0.623,��쓌,11.8,��
2021/02/28,14:40,0.656,0.965,0.605,1.209,0.856,0.379,0.667,0.623,��쓌,11.7,��
2021/02/28,14:50,0.657,0.966,0.607,1.211,0.855,0.379,0.667,0.621,��쓌,10.2,��
2021/02/28,15:00,0.659,0.965,0.607,1.208,0.856,0.380,0.667,0.623,��쓌,12.5,��
2021/02/28,15:10,0.657,0.966,0.607,1.209,0.855,0.379,0.669,0.622,��쓌,10.6,��
2021/02/28,15:20,0.659,0.965,0.608,1.210,0.856,0.380,0.668,0.622,��쓌,11.3,��
2021/02/28,15:30,0.659,0.966,0.605,1.209,0.856,0.378,0.669,0.623,��쓌,13.1,��
2021/02/28,15:40,0.660,0.966,0.606,1.211,0.857,0.380,0.668,0.624,��쓌,10.9,��
2021/02/28,15:50,0.657,0.968,0.606,1.207,0.855,0.378,0.667,0.625,��,9.2,��
2021/02/28,16:00,0.659,0.966,0.607,1.209,0.856,0.382,0.667,0.627,��,7.0,��
2021/02/28,16:10,0.658,0.968,0.607,1.210,0.856,0.380,0.669,0.628,��,8.6,��
2021/02/28,16:20,0.658,0.967,0.607,1.210,0.855,0.380,0.670,0.626,��,7.5,��
2021/02/28,16:30,0.659,0.969,0.607,1.211,0.857,0.379,0.669,0.627,��,6.4,��
2021/02/28,16:40,0.658,0.967,0.606,1.211,0.856,0.381,0.671,0.628,��,6.9,��
2021/02/28,16:50,0.658,0.968,0.607,1.208,0.858,0.380,0.670,0.626,��,5.2,��
2021/02/28,17:00,0.658,0.967,0.606,1.211,0.855,0.380,0.671,0.626,��,5.4,��
2021/02/28,17:10,0.660,0.966,0.607,1.209,0.857,0.381,0.671,0.627,��,6.4,��
2021/02/28,17:20,0.659,0.967,0.607,1.208,0.857,0.380,0.669,0.627,��,6.8,��
2021/02/28,17:30,0.657,0.966,0.607,1.207,0.857,0.380,0.670,0.627,��,8.2,��
2021/02/28,17:40,0.660,0.963,0.608,1.210,0.858,0.380,0.670,0.629,��,8.4,��
2021/02/28,17:50,0.657,0.966,0.606,1.210,0.860,0.379,0.670,0.626,��,8.8,��
2021/02/28,18:00,0.659,0.965,0.605,1.211,0.856,0.379,0.670,0.628,��,8.0,��
2021/02/28,18:10,0.658,0.966,0.607,1.211,0.856,0.379,0.670,0.625,��,8.3,��
2021/02/28,18:20,0.659,0.966,0.607,1.211,0.858,0.378,0.669,0.626,��,7.7,��
2021/02/28,18:30,0.659,0.965,0.606,1.209,0.858,0.379,0.668,0.627,��,8.6,��
2021/02/28,18:40,0.658,0.965,0.606,1.208,0.858,0.379,0.671,0.627,��,8.5,��
2021/02/28,18:50,0.658,0.968,0.607,1.209,0.857,0.378,0.668,0.626,��,9.1,��
2021/02/28,19:00,0.657,0.965,0.607,1.208,0.858,0.378,0.669,0.627,��,8.5,��
2021/02/28,19:10,0.659,0.964,0.606,1.210,0.857,0.379,0.668,0.626,��,8.0,��
2021/02/28,19:20,0.660,0.966,0.606,1.210,0.857,0.378,0.669,0.626,��,7.9,��
2021/02/28,19:30,0.659,0.965,0.606,1.208,0.856,0.377,0.671,0.625,��,7.9,��
2021/02/28,19:40,0.660,0.967,0.605,1.208,0.857,0.378,0.668,0.626,��쐼,7.6,��
2021/02/28,19:50,0.659,0.964,0.604,1.209,0.856,0.377,0.669,0.625,��쐼,7.8,��
2021/02/28,20:00,0.660,0.964,0.607,1.210,0.854,0.377,0.668,0.624,��쐼,7.4,��
2021/02/28,20:10,0.658,0.963,0.607,1.208,0.858,0.378,0.668,0.626,��쐼,6.9,��
2021/02/28,20:20,0.659,0.965,0.607,1.209,0.857,0.379,0.669,0.626,��쐼,6.3,��
2021/02/28,20:30,0.659,0.968,0.607,1.208,0.858,0.378,0.670,0.627,��쐼,5.7,��
2021/02/28,20:40,0.657,0.966,0.606,1.211,0.857,0.376,0.669,0.625,��쐼,6.2,��
2021/02/28,20:50,0.661,0.965,0.608,1.211,0.856,0.378,0.668,0.624,��,7.0,��
2021/02/28,21:00,0.659,0.965,0.606,1.208,0.856,0.376,0.669,0.624,��,7.1,��
2021/02/28,21:10,0.658,0.966,0.606,1.211,0.857,0.378,0.668,0.626,��,7.3,��
2021/02/28,21:20,0.658,0.964,0.607,1.208,0.856,0.376,0.669,0.626,��,7.7,��
2021/02/28,21:30,0.659,0.965,0.605,1.207,0.855,0.379,0.668,0.627,��,7.5,��
2021/02/28,21:40,0.657,0.964,0.606,1.208,0.856,0.379,0.668,0.625,��,7.1,��
2021/02/28,21:50,0.660,0.965,0.606,1.208,0.858,0.377,0.667,0.626,��,7.9,��
2021/02/28,22:00,0.660,0.965,0.607,1.207,0.856,0.375,0.666,0.627,��,7.0,��
2021/02/28,22:10,0.658,0.965,0.605,1.207,0.856,0.378,0.667,0.627,��,7.5,��
2021/02/28,22:20,0.660,0.965,0.607,1.210,0.856,0.378,0.668,0.626,��,7.8,��
2021/02/28,22:30,0.659,0.963,0.606,1.210,0.857,0.377,0.669,0.627,��,7.2,��
2021/02/28,22:40,0.659,0.966,0.606,1.210,0.856,0.377,0.669,0.626,��,8.2,��
2021/02/28,22:50,0.660,0.964,0.606,1.209,0.858,0.378,0.669,0.626,��,7.6,��
2021/02/28,23:00,0.658,0.965,0.607,1.208,0.857,0.378,0.671,0.627,��,7.5,��
2021/02/28,23:10,0.657,0.965,0.606,1.208,0.856,0.378,0.670,0.624,��쐼,6.7,��
2021/02/28,23:20,0.658,0.964,0.606,1.208,0.856,0.378,0.670,0.626,��쐼,7.1,��
2021/02/28,23:30,0.659,0.967,0.606,1.209,0.857,0.377,0.669,0.625,��쐼,7.1,��
2021/02/28,23:40,0.658,0.963,0.608,1.209,0.858,0.377,0.670,0.626,��쐼,7.0,��
2021/02/28,23:50,0.658,0.965,0.606,1.209,0.856,0.377,0.667,0.626,��쐼,7.5,��
